Погода в Херсоне

Погода в Херсоне : погода сейчас, прогноз погоды и архив. Всё, что Вы хотите узнать о погоде в Херсоне!

Хотите узнать прогноз погоды в Херсоне? Тогда Вам сюда: Погода в Херсоне

Поиск расширенной информации на нашем сайте:

Полезная информация:

Другие новости

Новости СМИ2

Главная страница сайта

Новости сайта

03.07.2017

Напоминаем, что на нашем специализированном сайте Метеоцентр.Азия вы можете получить высокодетализированные автоматические прогнозы погоды по пунктам России, СНГ и мира в авиационном формате (включающие направление и скорость ветра, видимость, явления погоды, количество и форму облачности, нижнюю и верхнюю границу облачности).

Рекомендуем:

Погода в Херсоне - сегодня

Время (UTC), дата Ветер
(°,м/с) 
Видим.   Явления Облачность Т
(°С)
Тd
(°С)
f(%) Тe
(°С)
Pmin
(гПа)
dP
(гПа)
Po
(мм)
O2
(г/м3)
Тmin Tmax R s Состояние
почвы
03 16.07.19 320 (СЗ) 20000 м  {ливн. осадки}  8/4 600 м кучево-дожд., средняя, верхняя 
[Cb calv|Ac lent|Ci]
+17.7 +13.3 75 +25  1007.4  0.7  751  281           
06 16.07.19 340 (С) 10 км  {ливн. осадки}  8/5 600 м кучево-дожд., средняя 
[Cb calv|Ac lent]
+19.2 +14.6 75 +28  1008.1  0.7  751  280  +17.5    0.0     
09 16.07.19 330 (СЗ) 10 км    4/1 600 м средняя 
[Cu med, cong|Ac lent]
+25.1 +13.5 49 +31  1007.5  -0.4  751  275           
12 16.07.19 330 (СЗ) 20000 м    6/4 600 м верхняя 
[Cu med, cong|Ci]
+26.4 +12 41 +30  1007.1  -0.4  751  274           
15 16.07.19 310 (СЗ) 20000 м    8/5 600 м кучево-дожд., средняя 
[Cb calv|Ac cuf]
+25.6 +13.1 46 +31  1006.9  -0.2  751  274           
18 16.07.19 350 (С) 10 км    9/5 600 м кучево-дожд., средняя 
[Cb calv|Ac und]
+21.4 +14.4 64 +29  1008  751  278    +27.7       
21 16.07.19 260 (З) 10 км    8/8 2000 м средняя 
[Ac und]
+19.6 +14.6 73 +29  1008.7  0.6  752  280           
00 17.07.19 320 (СЗ) 10 км    9/9 2000 м средняя 
[Ac lent]
+18.2 +14.2 77 +27  1008.3  -0.4  752  281           
03 17.07.19 320 (СЗ) 10 км    3/0 верхняя 
[Ci fib]
+15.6 +13.6 88 +23  1008.3  -0.1  751  284           
06 17.07.19 350 (С) 10 км    ясно 
+23.1 +13.5 55 +29  1008.4  0.3  752  277  +14.9  +3.4       
09 17.07.19 290 (З) 20000 м    6/6 600 м 
[Cu med, cong]
+27.3 +11.4 37 +30  1007.8  -0.5  751  273           
12 17.07.19 240 (ЮЗ) 20000 м    4/4 600 м 
[Cu med, cong]
+28.3 +9.2 30 +28  1007  -0.8  751  273           
15 17.07.19 290 (З) 20000 м    5/4 600 м кучево-дожд., средняя 
[Cb calv|Ac lent]
+28.7 +9.6 30 +29  1006.4  -0.6  750  272           
18 17.07.19 290 (З) 10 км    4/3 600 м верхняя 
[Sc diur, vesp|Ci fib]
+23.5 +11.4 47 +27  1007.4  0.9  751  276           
21 17.07.19 280 (З) 10 км    3/3 2000 м средняя 
[Ac lent]
+20 +14.3 70 +27  1008.3  0.8  752  279           
00 18.07.19 320 (СЗ) 10 км    3/3 2000 м средняя 
[Ac lent]
+18.6 +15 80 +28  1008  -0.3  751  280           
03 18.07.19 330 (СЗ) 10 км    6/6 2000 м средняя 
[Ac lent]
+17.4 +12.9 75 +23  1009.3  1.3  752  282           
06 18.07.19 340 (С) 20000 м    8/3 600 м кучево-дожд., средняя 
[Cb calv|Ac cuf]
+22.1 +9.5 45 +23  1010.5  1.3  753  279  +16.4        мокрая 
09 18.07.19 330 (СЗ) 20000 м    3/3 2000 м средняя 
[Ac lent]
+23.9 +10.8 44 +26  1010.6  0.1  753  277      270  698   
12 18.07.19 280 (З) 20000 м    ясно 
+26.3 +9.4 34 +27  1010.7  0.1  753  275           
15 18.07.19 320 (СЗ) 20000 м    3/3 600 м 
[Cu hum]
+26.9 +9.6 34 +27  1010.7  0.1  753  275           
18 18.07.19 тихо ()   10 км    ясно 
+21.2 +8.9 45 +21  1012.4  1.5  755  281           
21 18.07.19 320 (СЗ) 10 км    ясно 
+18 +9.4 57 +19  1013.9  1.5  756  284           
00 19.07.19 310 (СЗ) 10 км    ясно 
+16.4 +9.9 65 +18  1014.8  0.8  756  286           
03 19.07.19 330 (СЗ) 10 км    ясно 
+14.8 +10 73 +16  1016.1  1.3  757  288           
Время (UTC), дата Ветер
(°,м/с) 
Видим.   Явления Облачность Т
(°С)
Тd
(°С)
f(%) Тe
(°С)
Pmin
(гПа)
dP
(гПа)
Po
(мм)
O2
(г/м3)
Тmin Tmax R s Состояние
почвы

Для получения пояснительной информации подведите курсор к названию столбца.

ПОГОДА в Херсоне - архив

Всё, что Вы хотите узнать о погоде в Херсоне - удобно и подробно!

Выберите нужную дату (начиная с 1 января 2018* года) и нажмите кнопку "Найти".
Будут отображены архивные сводки погоды по пункту Херсон, начиная с указанной даты.


Отображать данные в формате CSV (для использования в таблицах Excel)


Внимание! Наш архив погоды предназначен исключительно для личного некоммерческого использования в познавательных целях. Если Вам необходимы официальные справки о состоянии погоды (для производственных, юридических, коммерческих и т.п. целей), обращайтесь в органы Росгидромета.

*Примечание: данная дата относится к архиву по метеостанциям СССР (Россия, СНГ, Балтия).
Архив по метеостанциям Зарубежной Европы и Азии (кроме Китая) хранится 10 дней, по другим регионам земного шара (Китай, Африка, Америка, Австралия, Океания) - 1 день.

Херсон - район местоположения метеостанции


Название, широта, долгота, высота метеостанции:
Херсон 46.6°ш. 32.6°д. 54 м над ур. моря [Украина]

Дополнительная информация

В oтличие oт бoльшинства пoгoдных сайтoв мы публикуем пoдрoбную метеoинфoрмацию в детальнoм прoфессиoнальнoм фoрмате.

Характеристики температуры и влажнoсти вoздуха измеряются на высoте 2 м в тени вдали oт зданий и деревьев.
Скoрoсть ветра измеряется на высoте 10 м (на урoвне рoста челoвека скoрoсть ветра ниже в 1.5-2 раза). Если метеoстанция нахoдится в гoрoде или в лесу, тo скoрoсть ветра занижена на 2-4 м/с пo сравнению с oткрытым местoм. Скoрoсть ветра над акватoриями крупных рек и oзёр, а также на вершинах хoлмoв на 2-5 м/с выше, чем в oбычных услoвиях.
Атмoсфернoе давление в разных тoчках местнoсти мoжет значительнo oтличаться oт давления на метеoстанции, в зависимoсти oт услoвий рельефа (при пoдъёме на 10 м давление пoнижается примернo на 1 мм рт.ст.).